Aswan, Egypt

9:08 AM EET on December 17, 2017 (GMT +0200)
Aswan

Weather History for HESN - January, 2014

Change the Weather History Date:

Monday, January 27, 2014

  Actual Average Record
Temperature  
Mean Temperature 71 °F -  
Max Temperature 82 °F 74 °F 88 °F (2015)
Min Temperature 60 °F 52 °F 42 °F (2016)
Cooling Degree Days 6    
Growing Degree Days 21 (Base 50)    
Moisture  
Dew Point 32 °F    
Average Humidity 23    
Maximum Humidity 49    
Minimum Humidity 8    
Precipitation  
Precipitation 0.00 in 0.00 in - ()
Sea Level Pressure  
Sea Level Pressure 29.79 in    
Wind  
Wind Speed 6 mph ()    
Max Wind Speed 14 mph    
Max Gust Speed -    
Visibility 6.0 miles    
Events      
Averages and records for this station are not official NWS values.
T = Trace of Precipitation, MM = Missing Value Source: Averaged Metar Reports

Daily Weather History Graph

Daily Weather History Graph

Search for Another Location

Airport or City:

Trip Planner

Search our weather history database for the weather conditions in past years. The results will help you decide how hot, cold, wet, or windy it might be!

Date:

Astronomy

Jan. 27, 2014 Rise Set
Actual Time 6:31 AM EET 5:31 PM EET
Civil Twilight 6:07 AM EET 5:55 PM EET
Nautical Twilight 5:40 AM EET 6:22 PM EET
Astronomical Twilight 5:13 AM EET 6:49 PM EET
Moon 2:47 AM EET (1/27) 2:01 PM EET (1/27)
Length of Visible Light 11h 47m
Length of Day
10h 59m
Waning Crescent, 17% of the Moon is Illuminated
Jan 27
Waning Crescent
Jan 30
New
Feb 6
First Quarter
Feb 15
Full
Feb 22
Last Quarter

Hourly Weather History & Observations

Time (EET) Temp. Dew Point Humidity Pressure Visibility Wind Dir Wind Speed Gust Speed Precip Events Conditions
12:00 AM 68.0 °F 48.2 °F 49% 29.77 in - SSW 2.3 mph - N/A   Clear
1:00 AM 68.0 °F 39.2 °F 35% 29.74 in - SSW 2.3 mph - N/A   Clear
2:00 AM 67 °F 26 °F 11% 29.75 in 6 mi NW 4.6 mph - -  
2:00 AM 66.2 °F 26.6 °F 23% 29.77 in - NW 4.6 mph - N/A   Clear
3:00 AM 66.2 °F 39.2 °F 37% 29.74 in - NNW 6.9 mph - N/A   Clear
4:00 AM 64.4 °F 28.4 °F 26% 29.77 in - North 6.9 mph - N/A   Clear
5:00 AM 62 °F 30 °F 19% 29.77 in 6 mi North 8.1 mph - -  
5:00 AM 62.6 °F 33.8 °F 34% 29.77 in - North 8.1 mph - N/A   Clear
6:00 AM 60.8 °F 30.2 °F 31% 29.77 in - North 3.5 mph - N/A   Clear
7:00 AM 62.6 °F 30.2 °F 30% 29.80 in - North 5.8 mph - N/A   Clear
8:00 AM 64 °F 34 °F 21% 29.81 in 6 mi North 5.8 mph - -  
8:00 AM 64.4 °F 33.8 °F 32% 29.80 in - North 5.8 mph - N/A   Clear
9:00 AM 66.2 °F 35.6 °F 32% 29.83 in - North 13.8 mph - N/A   Clear
10:00 AM 69.8 °F 33.8 °F 27% 29.83 in - North 11.5 mph - N/A   Clear
11:00 AM 72 °F 33 °F 14% 29.82 in 6 mi North 12.7 mph - -  
11:00 AM 71.6 °F 33.8 °F 25% 29.83 in - North 12.7 mph - N/A   Clear
12:00 PM - - N/A% 29.80 in - North - - N/A   Clear
1:00 PM 77.0 °F 33.8 °F 21% 29.77 in - North 8.1 mph - N/A   Clear
2:00 PM 79 °F 32 °F 10% 29.74 in 6 mi North 6.9 mph - -  
2:00 PM 78.8 °F 32.0 °F 18% 29.77 in - North 6.9 mph - N/A   Clear
3:00 PM 80.6 °F 30.2 °F 16% 29.74 in - NW 6.9 mph - N/A   Clear
4:00 PM 82.4 °F 28.4 °F 14% 29.77 in - WNW 9.2 mph - N/A   Clear
5:00 PM 80 °F 30 °F 8% 29.75 in 6 mi NW 8.1 mph - -  
5:00 PM 80.6 °F 30.2 °F 16% 29.77 in - NW 8.1 mph - N/A   Clear
6:00 PM 77.0 °F 28.4 °F 17% 29.77 in - WNW 6.9 mph - N/A   Clear
7:00 PM 73.4 °F 26.6 °F 18% 29.80 in - WNW 6.9 mph - N/A   Clear
8:00 PM 71 °F 29 °F 11% 29.82 in 6 mi WNW 9.2 mph - -  
8:00 PM 71.6 °F 28.4 °F 20% 29.83 in - WNW 9.2 mph - N/A   Clear
9:00 PM - - N/A% 29.83 in - North - - N/A   Clear
10:00 PM 68.0 °F 30.2 °F 24% 29.86 in - WNW 11.5 mph - N/A   Clear
11:00 PM 65 °F 30 °F 16% 29.88 in 6 mi WNW 11.5 mph - -  
11:00 PM 66.2 °F 30.2 °F 26% 29.89 in - WNW 11.5 mph - N/A   Clear